Location: Unspecified
(0.0000°N, 0.0000°E)
Time: 07:06:54
(UTC+00:00)

Vanguard 3 - Pass Details

Date: 23 November 2019
Orbit: 508 x 3263 km, 33.3° (Epoch: 11 December)

Event Time Altitude Azimuth Distance (km) Brightness Sun altitude
Rises 20:54:46 0° 304° (NW) 5,815 11.8 -43.3°
Reaches altitude 10° 20:59:18 10° 304° (NW) 4,358 11.0 -44.3°
Enters shadow 21:04:51 30° 302° (WNW) 2,510 9.6 -45.5°
